When you browse on this site, cookies collect data to enhance your experience and personalize the content and advertising you see.
Visit our Privacy Policy to learn more. By continuing to use the site, you agree to this use of cookies and data.
  • In Hungary
  • List of Countries
  • For 7 days
  • Water Temperature
  • Satellite Maps
  • Weather Map
  • News
  • Weather Widgets
  • user-avatar
    Login

    Hourly Weather Veszprem

    Today, 18 January, Friday

    Time Temperature Precipitation Wind Pressure Humidity
    00:00 +4°C° 0.9 mm 3 mps 735 mmHg 91%
    01:00 +4°C° 0.9 mm 3 mps 735 mmHg 93%
    02:00 +3°C° 2.2 mm 3 mps 735 mmHg 90%
    03:00 +3°C° 2.2 mm 3 mps 735 mmHg 86%
    04:00 +3°C° 2.2 mm 3 mps 735 mmHg 82%
    05:00 +2°C° 0.5 mm 3 mps 736 mmHg 81%
    06:00 +1°C° 0.5 mm 4 mps 736 mmHg 80%
    07:00 +1°C° 0.5 mm 5 mps 736 mmHg 79%
    08:00 +1°C° 0.2 mm 5 mps 737 mmHg 78%
    09:00 +1°C° 0.2 mm 4 mps 738 mmHg 78%
    10:00 +1°C° 0.2 mm 4 mps 738 mmHg 77%
    11:00 +1°C° 0 mm 5 mps 739 mmHg 74%
    12:00 +1°C° 0 mm 5 mps 739 mmHg 72%
    13:00 +1°C° 0 mm 6 mps 740 mmHg 69%
    14:00 0°C° 0 mm 5 mps 740 mmHg 70%
    15:00 0°C° 0 mm 4 mps 740 mmHg 71%
    16:00 +1°C° 0 mm 3 mps 741 mmHg 71%
    17:00 0°C° 0 mm 3 mps 741 mmHg 73%
    18:00 -1°C° 0 mm 3 mps 741 mmHg 75%
    19:00 -1°C° 0 mm 3 mps 742 mmHg 76%
    20:00 -2°C° 0 mm 3 mps 742 mmHg 78%
    21:00 -2°C° 0 mm 3 mps 743 mmHg 80%
    22:00 -2°C° 0 mm 2 mps 743 mmHg 81%
    23:00 -2°C° 0 mm 2 mps 743 mmHg 81%

    Tomorrow, 19 January, Saturday

    Time Temperature Precipitation Wind Pressure Humidity
    00:00 -3°C° 0 mm 2 mps 743 mmHg 80%
    01:00 -3°C° 0 mm 2 mps 743 mmHg 80%
    02:00 -3°C° 0 mm 2 mps 743 mmHg 79%
    03:00 -1°C° 0 mm 1 mps 743 mmHg 79%
    04:00 -1°C° 0 mm 1 mps 743 mmHg 78%
    05:00 -1°C° 0 mm 1 mps 743 mmHg 78%
    06:00 -1°C° 0 mm 1 mps 743 mmHg 78%
    07:00 -1°C° 0 mm 1 mps 743 mmHg 78%
    08:00 -3°C° 0 mm 2 mps 743 mmHg 75%
    09:00 -2°C° 0 mm 2 mps 743 mmHg 73%
    10:00 -1°C° 0 mm 3 mps 744 mmHg 71%
    11:00 -1°C° 0 mm 3 mps 743 mmHg 68%
    12:00 0°C° 0 mm 3 mps 743 mmHg 66%
    13:00 +1°C° 0 mm 3 mps 742 mmHg 64%
    14:00 0°C° 0 mm 3 mps 742 mmHg 65%
    15:00 0°C° 0 mm 3 mps 742 mmHg 67%
    16:00 0°C° 0 mm 3 mps 741 mmHg 68%
    17:00 0°C° 0 mm 3 mps 741 mmHg 70%
    18:00 -1°C° 0 mm 3 mps 741 mmHg 72%
    19:00 -2°C° 0 mm 4 mps 741 mmHg 74%
    20:00 -3°C° 0.3 mm 4 mps 741 mmHg 78%
    21:00 -3°C° 0.3 mm 4 mps 740 mmHg 82%
    22:00 -3°C° 0.3 mm 4 mps 740 mmHg 86%
    23:00 -2°C° 0.5 mm 3 mps 740 mmHg 88%

    Day after tomorrow, 20 January, Sunday

    Time Temperature Precipitation Wind Pressure Humidity
    00:00 -4°C° 0.5 mm 3 mps 740 mmHg 91%
    01:00 -4°C° 0.5 mm 3 mps 739 mmHg 93%
    02:00 -3°C° 0.3 mm 2 mps 739 mmHg 93%
    03:00 -3°C° 0.3 mm 2 mps 739 mmHg 94%
    04:00 -3°C° 0.3 mm 2 mps 738 mmHg 94%
    05:00 -1°C° 0.1 mm 1 mps 738 mmHg 94%
    06:00 -1°C° 0.1 mm 1 mps 738 mmHg 95%
    07:00 -1°C° 0.1 mm 1 mps 738 mmHg 95%
    08:00 0°C° 0 mm 1 mps 739 mmHg 93%
    09:00 0°C° 0 mm 1 mps 739 mmHg 91%
    10:00 -1°C° 0 mm 0 mps 739 mmHg 89%
    11:00 +1°C° 0 mm 1 mps 739 mmHg 87%
    12:00 +1°C° 0 mm 1 mps 739 mmHg 86%
    13:00 +1°C° 0 mm 2 mps 739 mmHg 84%
    14:00 -1°C° 0 mm 2 mps 739 mmHg 85%
    15:00 -1°C° 0 mm 2 mps 739 mmHg 85%
    16:00 -1°C° 0 mm 2 mps 739 mmHg 86%
    17:00 -2°C° 0 mm 2 mps 739 mmHg 88%
    18:00 -2°C° 0 mm 2 mps 740 mmHg 89%
    19:00 -1°C° 0 mm 1 mps 740 mmHg 91%
    20:00 -3°C° 0 mm 2 mps 740 mmHg 92%
    21:00 -3°C° 0 mm 2 mps 741 mmHg 92%
    22:00 -4°C° 0 mm 2 mps 741 mmHg 93%
    23:00 -4°C° 0 mm 2 mps 741 mmHg 92%

    21 January, Monday

    Time Temperature Precipitation Wind Pressure Humidity
    00:00 -4°C° 0 mm 2 mps 742 mmHg 92%
    01:00 -4°C° 0 mm 2 mps 742 mmHg 91%
    02:00 -4°C° 0 mm 2 mps 742 mmHg 91%
    03:00 -4°C° 0 mm 2 mps 742 mmHg 92%
    04:00 -5°C° 0 mm 2 mps 742 mmHg 92%
    05:00 -3°C° 0 mm 1 mps 743 mmHg 91%
    06:00 -3°C° 0 mm 1 mps 743 mmHg 91%
    07:00 -3°C° 0 mm 1 mps 744 mmHg 90%
    08:00 -2°C° 0 mm 1 mps 744 mmHg 85%
    09:00 -1°C° 0 mm 1 mps 744 mmHg 80%
    10:00 -1°C° 0 mm 1 mps 745 mmHg 74%
    11:00 0°C° 0 mm 1 mps 745 mmHg 73%
    12:00 +1°C° 0 mm 1 mps 745 mmHg 72%
    13:00 +2°C° 0 mm 1 mps 745 mmHg 71%
    14:00 +1°C° 0 mm 1 mps 745 mmHg 75%
    15:00 +1°C° 0 mm 1 mps 745 mmHg 79%
    16:00 0°C° 0 mm 1 mps 744 mmHg 83%
    17:00 0°C° 0 mm 1 mps 745 mmHg 84%
    18:00 -1°C° 0 mm 1 mps 745 mmHg 85%
    19:00 -1°C° 0 mm 1 mps 745 mmHg 86%
    20:00 -2°C° 0 mm 1 mps 745 mmHg 84%
    21:00 -2°C° 0 mm 1 mps 745 mmHg 82%
    22:00 -2°C° 0 mm 1 mps 744 mmHg 80%
    23:00 -2°C° 0 mm 1 mps 744 mmHg 79%

    22 January, Tuesday

    Time Temperature Precipitation Wind Pressure Humidity
    00:00 -4°C° 0 mm 2 mps 744 mmHg 79%
    01:00 -4°C° 0 mm 2 mps 743 mmHg 78%
    02:00 -4°C° 0 mm 2 mps 743 mmHg 81%
    03:00 -4°C° 0 mm 2 mps 742 mmHg 84%
    04:00 -5°C° 0 mm 3 mps 741 mmHg 87%
    05:00 -5°C° 0 mm 3 mps 741 mmHg 88%
    06:00 -6°C° 0 mm 3 mps 740 mmHg 88%
    07:00 -6°C° 0 mm 3 mps 740 mmHg 89%
    08:00 -5°C° 0.1 mm 3 mps 739 mmHg 88%
    09:00 -5°C° 0.1 mm 4 mps 739 mmHg 88%
    10:00 -5°C° 0.1 mm 4 mps 738 mmHg 87%
    11:00 -4°C° 0.5 mm 4 mps 737 mmHg 89%
    12:00 -5°C° 0.5 mm 5 mps 736 mmHg 90%
    13:00 -5°C° 0.5 mm 5 mps 735 mmHg 92%
    14:00 -5°C° 0.9 mm 5 mps 734 mmHg 93%
    15:00 -5°C° 0.9 mm 5 mps 733 mmHg 94%
    16:00 -4°C° 0.9 mm 5 mps 732 mmHg 95%
    17:00 -4°C° 1.2 mm 6 mps 731 mmHg 95%
    18:00 -4°C° 1.2 mm 6 mps 731 mmHg 95%
    19:00 -4°C° 1.2 mm 6 mps 730 mmHg 95%
    20:00 -4°C° 0.3 mm 6 mps 729 mmHg 95%
    21:00 -4°C° 0.3 mm 5 mps 728 mmHg 95%
    22:00 -4°C° 0.3 mm 5 mps 728 mmHg 95%
    23:00 -4°C° 0.7 mm 5 mps 727 mmHg 95%

    23 January, Wednesday

    Time Temperature Precipitation Wind Pressure Humidity
    00:00 -4°C° 0.7 mm 5 mps 726 mmHg 95%
    01:00 -2°C° 0.7 mm 5 mps 726 mmHg 96%
    02:00 -2°C° 0.6 mm 4 mps 725 mmHg 96%
    03:00 -2°C° 0.6 mm 4 mps 724 mmHg 97%
    04:00 -1°C° 0.6 mm 3 mps 724 mmHg 97%
    05:00 -1°C° 0.4 mm 3 mps 724 mmHg 97%
    06:00 -1°C° 0.4 mm 2 mps 723 mmHg 98%
    07:00 +1°C° 0.4 mm 1 mps 723 mmHg 98%
    08:00 -1°C° 0.4 mm 2 mps 723 mmHg 98%
    09:00 -1°C° 0.4 mm 2 mps 724 mmHg 99%
    10:00 -1°C° 0.4 mm 2 mps 724 mmHg 99%
    11:00 +1°C° 0.1 mm 1 mps 724 mmHg 99%
    12:00 +1°C° 0.1 mm 1 mps 724 mmHg 99%
    13:00 +1°C° 0.1 mm 1 mps 724 mmHg 99%
    14:00 +1°C° 0 mm 1 mps 724 mmHg 99%
    15:00 +1°C° 0 mm 1 mps 723 mmHg 98%
    16:00 +1°C° 0 mm 1 mps 723 mmHg 98%
    17:00 -1°C° 0 mm 2 mps 723 mmHg 98%
    18:00 -1°C° 0 mm 3 mps 723 mmHg 97%
    19:00 -1°C° 0 mm 3 mps 723 mmHg 97%
    20:00 -2°C° 0.3 mm 4 mps 723 mmHg 97%
    21:00 -1°C° 0.3 mm 5 mps 722 mmHg 96%
    22:00 -1°C° 0.3 mm 5 mps 722 mmHg 96%
    23:00 -1°C° 0 mm 5 mps 722 mmHg 96%
    Show more